N0JVW-13 Weather Reports


time (UTC)temp
C
wind
direction
speed
KPH
gust
KPH
rain 1hr
cm
rain 24hr
cm
rain mn
cm
humidity
%
barometer
mb
20260831102529 23 155 0.0 3.2 0.00 0.00 0.00 70 1011.4
20260831102006 23 139 0.0 3.2 0.00 0.00 0.00 69 1011.4
20260831101550 23 124 0.0 3.2 0.00 0.00 0.00 69 1011.4
20260831101030 23 162 0.0 3.2 0.00 0.00 0.00 69 1011.2
20260831100509 24 169 0.0 1.6 0.00 0.00 0.00 69 1011.3
20260831100115 24 145 0.0 1.6 0.00 0.00 0.00 69 1011.3
20260831095532 24 150 0.0 3.2 0.00 0.00 0.00 69 1011.3
20260831095011 24 142 0.0 3.2 0.00 0.00 0.00 68 1011.2
20260831094556 24 158 0.0 3.2 0.00 0.00 0.00 68 1011.2
20260831094034 24 169 0.0 3.2 0.00 0.00 0.00 68 1011.3
20260831093517 24 148 0.0 4.8 0.00 0.00 0.00 68 1011.3
20260831093059 24 128 0.0 4.8 0.00 0.00 0.00 67 1011.2
20260831092537 24 161 0.0 3.2 0.00 0.00 0.00 67 1011.3
20260831092022 25 137 0.0 4.8 0.00 0.00 0.00 67 1011.2
20260831091605 25 157 1.6 4.8 0.00 0.00 0.00 66 1011.2
20260831091040 25 137 0.0 4.8 0.00 0.00 0.00 66 1011.2
20260831090520 25 115 1.6 4.8 0.00 0.00 0.00 66 1011.1
20260831085542 25 158 0.0 3.2 0.00 0.00 0.00 66 1011.1
20260831085022 25 134 0.0 3.2 0.00 0.00 0.00 65 1011.1
20260831084501 25 159 0.0 3.2 0.00 0.00 0.00 65 1011.1
20260831084044 25 140 0.0 3.2 0.00 0.00 0.00 65 1011.1
20260831083524 25 155 0.0 3.2 0.00 0.00 0.00 65 1011.1
20260831083003 25 134 0.0 3.2 0.00 0.00 0.00 65 1011.2
20260831082547 25 155 0.0 3.2 0.00 0.00 0.00 65 1011.2
20260831082026 25 122 0.0 3.2 0.00 0.00 0.00 65 1011.1
20260831081506 25 141 0.0 4.8 0.00 0.00 0.00 65 1011.1
20260831081049 25 171 0.0 4.8 0.00 0.00 0.00 65 1011.0
20260831080529 25 139 0.0 3.2 0.00 0.00 0.00 65 1010.9
20260831080007 25 155 0.0 3.2 0.00 0.00 0.00 65 1010.9
20260831075551 25 136 0.0 3.2 0.00 0.00 0.00 65 1010.8
20260831075032 25 155 0.0 3.2 0.00 0.00 0.00 64 1010.8
20260831074510 25 146 0.0 3.2 0.00 0.00 0.00 65 1010.8
20260831074054 25 158 0.0 4.8 0.00 0.00 0.00 65 1010.8
20260831073534 25 129 0.0 4.8 0.00 0.00 0.00 65 1010.8
20260831073017 25 155 0.0 4.8 0.00 0.00 0.00 65 1010.7
20260831072556 25 146 0.0 3.2 0.00 0.00 0.00 65 1010.8
20260831072036 25 157 0.0 4.8 0.00 0.00 0.00 65 1010.8
20260831071518 25 155 0.0 4.8 0.00 0.00 0.00 65 1010.7
20260831071059 25 141 0.0 4.8 0.00 0.00 0.00 65 1010.7
20260831070538 25 159 0.0 4.8 0.00 0.00 0.00 64 1010.7
20260831070017 25 124 1.6 3.2 0.00 0.00 0.00 64 1010.6
20260831065603 25 133 1.6 3.2 0.00 0.00 0.00 64 1010.6
20260831065041 25 154 0.0 3.2 0.00 0.00 0.00 64 1010.7
20260831064523 25 138 0.0 4.8 0.00 0.00 0.00 63 1010.6
20260831064102 25 162 0.0 4.8 0.00 0.00 0.00 63 1010.5
20260831063542 25 139 0.0 3.2 0.00 0.00 0.00 63 1010.5
20260831063025 26 150 0.0 3.2 0.00 0.00 0.00 63 1010.5
20260831062501 26 139 0.0 3.2 0.00 0.00 0.00 63 1010.4
20260831062045 26 133 0.0 3.2 0.00 0.00 0.00 62 1010.4
20260831061525 26 128 0.0 1.6 0.00 0.00 0.00 62 1010.4
20260831061006 26 160 0.0 3.2 0.00 0.00 0.00 61 1010.3
20260831060546 26 130 0.0 3.2 0.00 0.00 0.00 61 1010.3
20260831060027 26 163 0.0 1.6 0.00 0.00 0.00 60 1010.3
20260831055505 26 158 0.0 3.2 0.00 0.00 0.00 60 1010.3
20260831055049 26 139 0.0 3.2 0.00 0.00 0.00 60 1010.2
20260831054528 26 146 0.0 3.2 0.00 0.00 0.00 60 1010.2
20260831054006 26 153 0.0 3.2 0.00 0.00 0.00 59 1010.1
20260831053550 26 153 0.0 3.2 0.00 0.00 0.00 59 1010.0
20260831053032 26 140 0.0 3.2 0.00 0.00 0.00 60 1010.1
20260831052509 26 148 0.0 3.2 0.00 0.00 0.00 59 1010.2
20260831052052 26 141 0.0 3.2 0.00 0.00 0.00 59 1010.1
20260831051531 27 132 0.0 3.2 0.00 0.00 0.00 59 1010.0
20260831051010 27 127 0.0 3.2 0.00 0.00 0.00 58 1010.0
20260831050553 27 153 0.0 1.6 0.00 0.00 0.00 58 1010.0
20260831050033 27 153 0.0 1.6 0.00 0.00 0.00 58 1010.0
20260831045513 27 146 0.0 1.6 0.00 0.00 0.00 57 1010.1
20260831045057 27 136 0.0 1.6 0.00 0.00 0.00 58 1010.1
20260831044536 27 150 0.0 0.0 0.00 0.00 0.00 57 1010.2
20260831044015 27 153 0.0 1.6 0.00 0.00 0.00 56 1010.2
20260831043558 27 162 0.0 1.6 0.00 0.00 0.00 56 1010.2
20260831043044 27 146 0.0 1.6 0.00 0.00 0.00 56 1010.1
20260831042518 27 146 0.0 1.6 0.00 0.00 0.00 56 1010.1
20260831042103 28 146 0.0 1.6 0.00 0.00 0.00 55 1010.1
20260831041553 28 124 0.0 1.6 0.00 0.00 0.00 55 1010.1
20260831041021 28 152 0.0 1.6 0.00 0.00 0.00 55 1010.2
20260831040604 28 140 0.0 1.6 0.00 0.00 0.00 54 1010.1
20260831040043 28 131 0.0 0.0 0.00 0.00 0.00 54 1010.2
20260831035524 28 129 0.0 0.0 0.00 0.00 0.00 54 1010.2
20260831035002 28 134 0.0 0.0 0.00 0.00 0.00 54 1010.2
20260831034546 28 156 0.0 1.6 0.00 0.00 0.00 54 1010.2
20260831034025 28 169 0.0 1.6 0.00 0.00 0.00 54 1010.2
20260831033508 28 144 0.0 3.2 0.00 0.00 0.00 54 1010.1
20260831033105 28 152 0.0 3.2 0.00 0.00 0.00 54 1010.1
20260831032530 28 117 0.0 3.2 0.00 0.00 0.00 54 1010.1
20260831032008 28 143 0.0 3.2 0.00 0.00 0.00 53 1010.1
20260831031554 29 136 0.0 3.2 0.00 0.00 0.00 53 1010.0
20260831031031 29 166 0.0 1.6 0.00 0.00 0.00 53 1010.0
20260831030511 29 143 0.0 3.2 0.00 0.00 0.00 53 1010.1
20260831030053 29 157 0.0 3.2 0.00 0.00 0.00 53 1010.0
20260831025533 29 146 0.0 3.2 0.00 0.00 0.00 53 1010.0
20260831025012 29 163 0.0 3.2 0.00 0.00 0.00 53 1010.0
20260831024600 29 130 0.0 3.2 0.00 0.00 0.00 53 1009.9
20260831024037 29 153 0.0 3.2 0.00 0.00 0.00 53 1009.9
20260831023515 29 149 0.0 3.2 0.00 0.00 0.00 53 1009.9
20260831023100 29 146 0.0 3.2 0.00 0.00 0.00 53 1009.8
20260831022537 29 155 0.0 1.6 0.00 0.00 0.00 53 1009.8
20260831022017 30 119 0.0 1.6 0.00 0.00 0.00 53 1009.7
20260831021600 30 140 0.0 1.6 0.00 0.00 0.00 53 1009.7
20260831021041 30 134 0.0 3.2 0.00 0.00 0.00 52 1009.7
20260831020522 30 154 0.0 3.2 0.00 0.00 0.00 52 1009.7
20260831015541 30 141 0.0 1.6 0.00 0.00 0.00 52 1009.5
20260831015020 30 150 0.0 3.2 0.00 0.00 0.00 52 1009.4
20260831014606 30 141 0.0 3.2 0.00 0.00 0.00 52 1009.3
20260831014044 30 139 0.0 1.6 0.00 0.00 0.00 52 1009.3
20260831013524 30 148 0.0 1.6 0.00 0.00 0.00 52 1009.3
20260831013003 30 141 0.0 1.6 0.00 0.00 0.00 51 1009.2
20260831012546 30 153 0.0 1.6 0.00 0.00 0.00 52 1009.2
20260831012026 31 118 0.0 1.6 0.00 0.00 0.00 52 1009.1
20260831011515 31 142 0.0 0.0 0.00 0.00 0.00 51 1009.1
20260831011049 31 142 0.0 0.0 0.00 0.00 0.00 51 1009.1
20260831010529 31 142 0.0 0.0 0.00 0.00 0.00 51 1009.0
20260831010013 31 142 0.0 1.6 0.00 0.00 0.00 50 1008.9
20260831005554 31 141 0.0 1.6 0.00 0.00 0.00 49 1008.9
20260831005031 32 141 0.0 1.6 0.00 0.00 0.00 49 1008.8
20260831004513 32 153 0.0 3.2 0.00 0.00 0.00 48 1008.7
20260831004054 32 139 0.0 3.2 0.00 0.00 0.00 48 1008.7
20260831003535 32 155 0.0 3.2 0.00 0.00 0.00 47 1008.7
20260831003020 32 143 0.0 4.8 0.00 0.00 0.00 47 1008.7
20260831002555 32 171 0.0 4.8 0.00 0.00 0.00 47 1008.6
20260831002035 32 129 0.0 4.8 0.00 0.00 0.00 47 1008.6
20260831001523 33 132 0.0 4.8 0.00 0.00 0.00 46 1008.5
20260831001058 33 143 0.0 1.6 0.00 0.00 0.00 46 1008.5
20260831000538 33 133 0.0 1.6 0.00 0.00 0.00 46 1008.5
20260831000018 33 128 0.0 1.6 0.00 0.00 0.00 45 1008.6
20260830235603 33 149 0.0 1.6 0.00 0.00 0.00 45 1008.5
20260830235045 33 134 0.0 1.6 0.00 0.00 0.00 44 1008.5
20260830234518 33 148 0.0 1.6 0.00 0.00 0.00 44 1008.5
20260830234102 33 148 0.0 3.2 0.00 0.00 0.00 43 1008.6
20260830233542 34 148 0.0 3.2 0.00 0.00 0.00 42 1008.5
20260830233021 34 134 0.0 3.2 0.00 0.00 0.00 41 1008.5
20260830232501 34 145 0.0 3.2 0.00 0.00 0.00 41 1008.5
20260830232045 34 157 1.6 4.8 0.00 0.00 0.00 40 1008.5
20260830231524 34 151 0.0 3.2 0.00 0.00 0.00 40 1008.5
20260830231105 35 157 0.0 4.8 0.00 0.00 0.00 40 1008.5
20260830230543 35 128 0.0 4.8 0.00 0.00 0.00 39 1008.5
20260830230027 35 122 1.6 4.8 0.00 0.00 0.00 39 1008.4
20260830225502 35 167 1.6 4.8 0.00 0.00 0.00 40 1008.4
20260830225046 35 172 0.0 4.8 0.00 0.00 0.00 39 1008.4
20260830224525 35 164 0.0 4.8 0.00 0.00 0.00 39 1008.4
20260830224006 35 131 0.0 6.4 0.00 0.00 0.00 38 1008.5
20260830223550 35 122 0.0 6.4 0.00 0.00 0.00 38 1008.5
20260830223030 35 129 0.0 6.4 0.00 0.00 0.00 38 1008.4
20260830222509 35 129 3.2 8.0 0.00 0.00 0.00 39 1008.4
20260830222052 35 134 1.6 8.0 0.00 0.00 0.00 40 1008.4
20260830221531 35 157 1.6 6.4 0.00 0.00 0.00 41 1008.4
20260830221011 35 146 3.2 6.4 0.00 0.00 0.00 40 1008.4
20260830220555 35 176 3.2 6.4 0.00 0.00 0.00 41 1008.5
20260830220037 35 140 1.6 4.8 0.00 0.00 0.00 41 1008.6
20260830215514 35 125 0.0 6.4 0.00 0.00 0.00 41 1008.6
20260830215058 35 126 1.6 6.4 0.00 0.00 0.00 41 1008.6
20260830214537 35 124 0.0 4.8 0.00 0.00 0.00 42 1008.7
20260830214015 35 134 1.6 4.8 0.00 0.00 0.00 42 1008.7
20260830213559 35 120 0.0 6.4 0.00 0.00 0.00 43 1008.7
20260830213038 35 159 1.6 8.0 0.00 0.00 0.00 42 1008.8
20260830212519 35 146 1.6 8.0 0.00 0.00 0.00 42 1008.7
20260830212101 35 131 0.0 4.8 0.00 0.00 0.00 43 1008.7
20260830211541 35 165 0.0 4.8 0.00 0.00 0.00 42 1008.8
20260830211019 35 155 1.6 6.4 0.00 0.00 0.00 42 1008.9
20260830210602 35 165 3.2 8.0 0.00 0.00 0.00 43 1009.0
20260830210051 35 134 1.6 8.0 0.00 0.00 0.00 42 1009.0
20260830205526 35 142 0.0 6.4 0.00 0.00 0.00 42 1009.1
20260830205104 35 152 1.6 6.4 0.00 0.00 0.00 42 1009.2
20260830204548 35 132 0.0 6.4 0.00 0.00 0.00 43 1009.2
20260830204024 35 158 1.6 6.4 0.00 0.00 0.00 42 1009.4
20260830203503 35 168 1.6 9.7 0.00 0.00 0.00 42 1009.5
20260830203046 35 129 3.2 8.0 0.00 0.00 0.00 41 1009.6
20260830202525 35 146 0.0 8.0 0.00 0.00 0.00 42 1009.7
20260830202005 35 162 3.2 6.4 0.00 0.00 0.00 41 1009.7
20260830201550 35 124 0.0 6.4 0.00 0.00 0.00 42 1009.8
20260830201028 35 130 0.0 6.4 0.00 0.00 0.00 43 1009.8
20260830200506 35 128 0.0 8.0 0.00 0.00 0.00 43 1009.7
20260830200105 35 122 1.6 9.7 0.00 0.00 0.00 42 1009.9
20260830195530 35 174 3.2 9.7 0.00 0.00 0.00 42 1009.9
20260830195009 35 164 3.2 9.7 0.00 0.00 0.00 42 1010.0
20260830194618 35 162 1.6 9.7 0.00 0.00 0.00 43 1010.1
20260830194029 35 155 1.6 9.7 0.00 0.00 0.00 43 1010.1
20260830193509 35 155 1.6 8.0 0.00 0.00 0.00 43 1010.2
20260830193052 35 158 1.6 8.0 0.00 0.00 0.00 45 1010.3
20260830192531 35 145 1.6 8.0 0.00 0.00 0.00 43 1010.2
20260830192010 34 175 0.0 8.0 0.00 0.00 0.00 44 1010.4
20260830191559 35 174 1.6 8.0 0.00 0.00 0.00 44 1010.3
20260830191034 35 165 0.0 6.4 0.00 0.00 0.00 45 1010.4
20260830190513 35 165 3.2 6.4 0.00 0.00 0.00 44 1010.4
20260830190057 34 137 0.0 6.4 0.00 0.00 0.00 46 1010.5
20260830185537 34 141 0.0 6.4 0.00 0.00 0.00 45 1010.5
20260830185015 33 131 1.6 8.0 0.00 0.00 0.00 46 1010.6
20260830184558 33 148 1.6 6.4 0.00 0.00 0.00 45 1010.7
20260830184038 33 140 1.6 8.0 0.00 0.00 0.00 46 1010.7
20260830183518 33 127 0.0 8.0 0.00 0.00 0.00 47 1010.7
20260830183117 33 136 1.6 8.0 0.00 0.00 0.00 47 1010.7
20260830182540 33 173 0.0 8.0 0.00 0.00 0.00 47 1010.7
20260830182019 33 125 3.2 8.0 0.00 0.00 0.00 46 1010.8
20260830181603 33 129 1.6 9.7 0.00 0.00 0.00 47 1010.9
20260830181044 33 183 3.2 9.7 0.00 0.00 0.00 47 1010.9
20260830180521 33 177 0.0 6.4 0.00 0.00 0.00 49 1010.9
20260830180000 32 156 0.0 8.0 0.00 0.00 0.00 47 1010.9
20260830175544 32 171 1.6 9.7 0.00 0.00 0.00 48 1011.0
20260830175024 32 131 3.2 9.7 0.00 0.00 0.00 47 1011.1
20260830174503 32 165 1.6 9.7 0.00 0.00 0.00 47 1011.2
20260830174049 32 150 1.6 9.7 0.00 0.00 0.00 49 1011.1
20260830173525 32 204 1.6 9.7 0.00 0.00 0.00 50 1011.2
20260830173002 32 174 3.2 9.7 0.00 0.00 0.00 49 1011.3
20260830172545 32 194 0.0 6.4 0.00 0.00 0.00 52 1011.2
20260830172029 31 168 0.0 9.7 0.00 0.00 0.00 52 1011.3
20260830171505 31 214 1.6 9.7 0.00 0.00 0.00 51 1011.4
20260830171049 31 175 1.6 6.4 0.00 0.00 0.00 52 1011.5
20260830170528 31 254 0.0 6.4 0.00 0.00 0.00 51 1011.4
20260830170011 31 150 1.6 9.7 0.00 0.00 0.00 53 1011.4
20260830165549 31 150 1.6 9.7 0.00 0.00 0.00 52 1011.5
20260830165030 30 157 1.6 9.7 0.00 0.00 0.00 53 1011.5
20260830164513 30 285 0.0 8.0 0.00 0.00 0.00 54 1011.6
20260830164100 30 208 1.6 9.7 0.00 0.00 0.00 52 1011.6
20260830163540 30 170 1.6 9.7 0.00 0.00 0.00 53 1011.7
20260830163023 30 160 1.6 8.0 0.00 0.00 0.00 53 1011.6
20260830162602 30 155 1.6 6.4 0.00 0.00 0.00 55 1011.6
20260830162041 30 144 0.0 8.0 0.00 0.00 0.00 55 1011.8
20260830161522 29 167 1.6 8.0 0.00 0.00 0.00 55 1011.8
20260830161103 29 166 0.0 8.0 0.00 0.00 0.00 56 1011.7
20260830160543 29 218 3.2 9.7 0.00 0.00 0.00 56 1011.8
20260830160022 28 160 3.2 11.3 0.00 0.00 0.00 56 1011.8
20260830155604 28 140 3.2 11.3 0.00 0.00 0.00 56 1011.8
20260830155043 28 104 1.6 9.7 0.00 0.00 0.00 57 1011.8
20260830154522 28 157 0.0 6.4 0.00 0.00 0.00 58 1011.7
20260830154002 28 117 1.6 6.4 0.00 0.00 0.00 59 1011.7
20260830153545 28 173 3.2 8.0 0.00 0.00 0.00 59 1011.7
20260830153040 27 145 3.2 8.0 0.00 0.00 0.00 59 1011.6
20260830152503 27 188 3.2 8.0 0.00 0.00 0.00 60 1011.4
20260830152046 27 148 0.0 9.7 0.00 0.00 0.00 60 1011.4
20260830151526 27 213 1.6 9.7 0.00 0.00 0.00 60 1011.4
20260830151006 27 148 0.0 6.4 0.00 0.00 0.00 62 1011.3
20260830150548 26 157 0.0 6.4 0.00 0.00 0.00 63 1011.3
20260830150031 26 153 0.0 6.4 0.00 0.00 0.00 63 1011.4
20260830145509 26 170 1.6 9.7 0.00 0.00 0.00 62 1011.4
20260830145050 26 175 1.6 9.7 0.00 0.00 0.00 63 1011.5
20260830144531 26 106 0.0 6.4 0.00 0.00 0.00 63 1011.4
20260830144013 26 172 1.6 11.3 0.00 0.00 0.00 62 1011.4
20260830143553 26 171 4.8 11.3 0.00 0.00 0.00 62 1011.4
20260830143033 26 80 1.6 6.4 0.00 0.00 0.00 63 1011.4
20260830142515 26 161 0.0 6.4 0.00 0.00 0.00 64 1011.6
20260830142056 25 165 1.6 9.7 0.00 0.00 0.00 64 1011.6
20260830141536 25 154 1.6 9.7 0.00 0.00 0.00 64 1011.6
20260830141014 25 128 1.6 8.0 0.00 0.00 0.00 65 1011.7
20260830140557 25 175 0.0 8.0 0.00 0.00 0.00 66 1011.6
20260830140037 25 170 1.6 8.0 0.00 0.00 0.00 66 1011.6
20260830135519 25 163 0.0 6.4 0.00 0.00 0.00 67 1011.5
20260830135101 25 176 0.0 6.4 0.00 0.00 0.00 67 1011.6
20260830134542 24 220 3.2 8.0 0.00 0.00 0.00 66 1011.6
20260830134019 24 186 3.2 6.4 0.00 0.00 0.00 67 1011.7
20260830133604 24 183 3.2 6.4 0.00 0.00 0.00 67 1011.7
20260830133041 23 152 1.6 6.4 0.00 0.00 0.00 68 1011.6
20260830132522 23 160 1.6 11.3 0.00 0.00 0.00 69 1011.8
20260830132104 23 167 3.2 11.3 0.00 0.00 0.00 68 1011.8
20260830131555 23 133 3.2 6.4 0.00 0.00 0.00 70 1011.8
20260830131024 23 148 0.0 4.8 0.00 0.00 0.00 70 1011.9
20260830130506 23 152 1.6 4.8 0.00 0.00 0.00 71 1012.0
20260830130046 22 166 1.6 4.8 0.00 0.00 0.00 71 1012.0
20260830125525 22 162 0.0 4.8 0.00 0.00 0.00 71 1012.0
20260830125009 22 160 0.0 4.8 0.00 0.00 0.00 71 1012.0
20260830124549 22 155 0.0 4.8 0.00 0.00 0.00 72 1012.1
20260830124030 22 164 0.0 4.8 0.00 0.00 0.00 72 1012.1
20260830123506 22 129 1.6 3.2 0.00 0.00 0.00 72 1012.1
20260830123051 22 148 0.0 3.2 0.00 0.00 0.00 72 1012.1
20260830122530 22 141 0.0 3.2 0.00 0.00 0.00 72 1012.0
20260830122010 22 170 0.0 3.2 0.00 0.00 0.00 72 1012.1
20260830121553 22 143 0.0 3.2 0.00 0.00 0.00 72 1012.1
20260830121031 22 147 0.0 3.2 0.00 0.00 0.00 72 1012.1
20260830120511 22 122 0.0 3.2 0.00 0.00 0.00 71 1012.1
20260830120055 22 146 0.0 3.2 0.00 0.00 0.00 72 1012.1
20260830115535 22 118 0.0 3.2 0.00 0.00 0.00 71 1012.0
20260830115013 22 158 0.0 3.2 0.00 0.00 0.00 71 1012.0
20260830114605 22 118 0.0 4.8 0.00 0.00 0.00 71 1011.9
20260830114038 22 146 0.0 4.8 0.00 0.00 0.00 71 1011.9
20260830113517 23 158 0.0 4.8 0.00 0.00 0.00 70 1012.0
20260830113101 23 165 0.0 4.8 0.00 0.00 0.00 70 1011.9
20260830112539 23 149 0.0 3.2 0.00 0.00 0.00 70 1011.8
20260830112022 23 165 0.0 4.8 0.00 0.00 0.00 70 1011.8
20260830111603 23 138 0.0 4.8 0.00 0.00 0.00 70 1011.8
20260830111043 23 136 0.0 4.8 0.00 0.00 0.00 70 1011.9
20260830110523 23 136 0.0 4.8 0.00 0.00 0.00 70 1011.8
20260830110003 23 152 0.0 3.2 0.00 0.00 0.00 70 1011.7
20260830105546 23 128 0.0 3.2 0.00 0.00 0.00 70 1011.7
20260830105025 23 169 0.0 4.8 0.00 0.00 0.00 70 1011.7
20260830104505 23 158 0.0 4.8 0.00 0.00 0.00 70 1011.7
20260830104048 23 149 0.0 4.8 0.00 0.00 0.00 70 1011.7
20260830103528 23 153 0.0 4.8 0.00 0.00 0.00 70 1011.5
20260830103009 23 155 1.6 8.0 0.00 0.00 0.00 70 1011.5